[[{"header":{"parameterUnit":"m.s-1","parameterCategory":2,"la1":30.2991,"la2":30.254,"lo1":-89.0895,"lo2":-89.0444,"dy":0.0017,"dx":0.0017,"nx":28,"ny":28,"refTime":"2025-11-30T09:00:00:Z","depth":"0","parameterNumber":2,"parameterNumberName":"U-component_of_CURRENTS"},"data":[0,0,0,0,0,0,0,0,0,0,0,0,0,0,0,0,0,0,0,0,0,0,0,0,0,0,0,0,0,0,0,0,0,0,0,0,0,0,0,0,0,0,0,0,0,0,0,0,0,0,0,0,0,0,0,0,0,0,-0.1803,-0.1804,0,-0.1874,-0.1874,-0.1875,-0.1877,-0.1877,-0.1876,-0.1875,-0.1877,-0.1878,-0.1879,0,0,0,0,0,0,0,0,0,0,0,0,0,-0.1649,-0.1651,-0.1803,-0.1804,-0.1805,-0.1874,-0.1874,-0.1875,-0.1877,-0.1877,-0.1876,-0.1875,-0.1877,-0.1878,-0.1879,0,0,0,0,0,0,0,0,0,0,0,0,0,-0.1714,-0.1652,-0.1803,-0.1817,-0.1819,-0.1873,-0.1874,-0.1875,-0.1877,-0.1877,-0.1876,-0.1875,-0.1877,-0.1878,-0.1879,-0.1901,0,0,-0.1881,-0.1882,0,0,0,0,0,0,0,0,-0.171,-0.1719,-0.1814,-0.1816,-0.1819,-0.1868,-0.1821,-0.1882,-0.1878,-0.1852,-0.1875,-0.1874,-0.1871,-0.1872,-0.1884,-0.1901,-0.1902,-0.1881,-0.1882,-0.1882,-0.1883,0,0,0,0,0,0,0,-0.1706,-0.1716,-0.1828,-0.1815,-0.1818,-0.1813,-0.1821,-0.1832,-0.1862,-0.1854,-0.1855,-0.1868,-0.1871,-0.1883,-0.1884,-0.1902,-0.1881,-0.1882,-0.1883,-0.1883,-0.1939,-0.194,0,0,0,0,0,0,-0.1706,-0.1713,-0.1826,-0.183,-0.1765,-0.1816,-0.1825,-0.1851,-0.1863,-0.1866,-0.1869,-0.1868,-0.1882,-0.1883,-0.1884,-0.1922,-0.1882,-0.1883,-0.1884,-0.1938,-0.1939,-0.194,0,0,0,0,0,0,-0.1703,-0.1716,-0.1823,-0.1774,-0.1788,-0.1821,-0.1849,-0.1853,-0.1864,-0.1876,-0.1876,-0.1876,-0.1881,-0.1882,-0.1903,-0.1921,-0.1884,-0.1884,-0.1937,-0.1938,-0.194,-0.1991,0,0,0,0,0,0,-0.1698,-0.1715,-0.1733,-0.1775,-0.1791,-0.186,-0.185,-0.1855,-0.1875,-0.1875,-0.1882,-0.1882,-0.1881,-0.1902,-0.1904,-0.1922,-0.1885,-0.1936,-0.1937,-0.1939,-0.1988,-0.1994,-0.1999,0,0,0,0,0,-0.1693,-0.1733,-0.1734,-0.1748,-0.1816,-0.1862,-0.1869,-0.1886,-0.1876,-0.189,-0.1897,-0.1881,-0.1914,-0.1904,-0.1906,-0.1924,-0.1935,-0.1937,-0.1939,-0.1986,-0.1993,-0.1999,0,0,0,0,0,0,-0.1687,-0.1738,-0.174,-0.1797,-0.1825,-0.1863,-0.1886,-0.1889,-0.1906,-0.1903,-0.19,-0.1901,-0.1927,-0.1918,-0.1907,-0.1945,-0.192,-0.1922,-0.1955,-0.1961,-0.1967,-0.1959,-0.1886,0,0,0,0,0,-0.1692,-0.1732,-0.1769,-0.1815,-0.1828,-0.1852,-0.1872,-0.1882,-0.1904,-0.1911,-0.1916,-0.1921,-0.194,-0.1943,-0.1957,-0.1978,-0.1967,-0.1989,-0.1994,-0.1999,-0.1995,-0.1996,-0.2001,-0.1947,-0.1947,-0.1947,0,0,-0.1705,-0.1739,-0.1763,-0.1815,-0.1838,-0.1866,-0.1862,-0.1898,-0.1921,-0.1908,-0.1938,-0.1945,-0.1951,-0.1981,-0.199,-0.1973,-0.2013,-0.2002,-0.2006,-0.1999,-0.1999,-0.2004,-0.2009,-0.1949,-0.1948,-0.1948,0,0,-0.1746,-0.1777,-0.1813,-0.1833,-0.1869,-0.1886,-0.1894,-0.1927,-0.194,-0.1971,-0.197,-0.1983,-0.2008,-0.2016,-0.2023,-0.2064,-0.2046,-0.2069,-0.2088,-0.209,-0.2094,-0.2098,-0.2107,-0.2111,-0.2067,-0.2067,-0.2067,0,-0.1755,-0.1807,-0.183,-0.1859,-0.188,-0.1892,-0.1922,-0.1944,-0.1979,-0.1995,-0.1984,-0.2026,-0.2024,-0.2062,-0.2074,-0.2076,-0.2077,-0.2064,-0.2097,-0.21,-0.2103,-0.2111,-0.2115,-0.207,-0.2069,-0.2069,-0.2069,0,-0.181,-0.1844,-0.1869,-0.1906,-0.193,-0.1963,-0.1988,-0.2011,-0.2021,-0.204,-0.2078,-0.2082,-0.2102,-0.2107,-0.2102,-0.2128,-0.2124,-0.2109,-0.2079,-0.2111,-0.2118,-0.2121,-0.2073,-0.2072,-0.2072,-0.2071,0,0,-0.1835,-0.1896,-0.1899,-0.1921,-0.1954,-0.1986,-0.2021,-0.2064,-0.2095,-0.2112,-0.2152,-0.2169,-0.2164,-0.217,-0.2168,-0.2162,-0.2183,-0.2142,-0.2141,-0.215,-0.2198,-0.2196,-0.2199,-0.2176,-0.2176,-0.2176,-0.2201,0,-0.1864,-0.1931,-0.1947,-0.1999,-0.2032,-0.2046,-0.2082,-0.2117,-0.2144,-0.2185,-0.2189,-0.2222,-0.2193,-0.2204,-0.2198,-0.2188,-0.219,-0.2178,-0.2166,-0.2166,-0.2159,-0.2202,-0.2104,-0.2117,-0.2203,-0.2204,-0.2204,0,-0.1888,-0.1939,-0.1998,-0.2054,-0.2068,-0.2096,-0.2153,-0.2186,-0.2234,-0.2253,-0.2276,-0.2283,-0.229,-0.2257,-0.2247,-0.2243,-0.2224,-0.2208,-0.2208,-0.2186,-0.2169,-0.2096,-0.2119,-0.2043,-0.2208,-0.2208,-0.2207,0,-0.1892,-0.1961,-0.2015,-0.2033,-0.2101,-0.2127,-0.2159,-0.2207,-0.2242,-0.2293,-0.2319,-0.2335,-0.2341,-0.2319,-0.2279,-0.2268,-0.2265,-0.2245,-0.2232,-0.2232,-0.2134,-0.2124,-0.2075,-0.2242,-0.2241,-0.2241,-0.2241,0,-0.1906,-0.1942,-0.2025,-0.2055,-0.2122,-0.2149,-0.221,-0.2244,-0.2291,-0.2334,-0.235,-0.2383,-0.2353,-0.235,-0.231,-0.2282,-0.229,-0.2244,-0.224,-0.2152,-0.2144,-0.2061,-0.2062,-0.2242,-0.2242,-0.2242,-0.2242,0,-0.1885,-0.1939,-0.2007,-0.2095,-0.2125,-0.2167,-0.2237,-0.2276,-0.2316,-0.237,-0.2384,-0.2419,-0.2417,-0.239,-0.2359,-0.2322,-0.2245,-0.2281,-0.2186,-0.2171,-0.2092,-0.2101,-0.2073,-0.2029,-0.2278,-0.2278,-0.2278,0,-0.1875,-0.1914,-0.2031,-0.2074,-0.2112,-0.2181,-0.2224,-0.2284,-0.2317,-0.2389,-0.2411,-0.2441,-0.2457,-0.2428,-0.2363,-0.2315,-0.2252,-0.2198,-0.2156,-0.2084,-0.209,-0.2077,-0.204,-0.205,-0.2049,-0.2047,-0.2046,0,-0.1855,-0.1901,-0.1963,-0.2057,-0.2118,-0.2185,-0.2245,-0.2278,-0.2338,-0.2377,-0.2421,-0.2443,-0.2449,-0.2358,-0.2306,-0.2259,-0.2125,-0.2171,-0.2103,-0.1924,-0.1896,-0.1851,-0.205,-0.2033,-0.2034,-0.2035,-0.2036,-0.2037,-0.182,-0.186,-0.1941,-0.2014,-0.2086,-0.2136,-0.214,-0.22,-0.2234,-0.222,-0.234,-0.2304,-0.2278,-0.2202,-0.2167,-0.2013,-0.2078,-0.1915,-0.1939,-0.1937,-0.1871,-0.2061,-0.2037,-0.2038,-0.2039,-0.204,-0.2041,0,-0.1754,-0.181,-0.1884,-0.1955,-0.1973,-0.2045,-0.2102,-0.2058,-0.2039,-0.207,-0.2073,-0.2049,-0.1965,-0.1927,-0.1827,-0.176,-0.1708,-0.1704,-0.1625,-0.1604,-0.1756,-0.1718,-0.1614,-0.1614,-0.1614,-0.1614,-0.1614,-0.1614,-0.1718,-0.1755,-0.1797,-0.1801,-0.1838,-0.1798,-0.1795,-0.1757,-0.1738,-0.167,-0.1644,-0.171,-0.1738,-0.1747,-0.1617,-0.1552,-0.1477,-0.1456,-0.1484,-0.1541,-0.156,-0.1578,-0.1538,-0.1397,-0.1397,-0.124,-0.1239,-0.1238]},{"header":{"parameterUnit":"m.s-1","parameterCategory":2,"la1":30.2991,"la2":30.254,"lo1":-89.0895,"lo2":-89.0444,"dy":0.0017,"dx":0.0017,"nx":28,"ny":28,"refTime":"2025-11-30T09:00:00:Z","depth":"0","parameterNumber":3,"parameterNumberName":"V-component_of_CURRENTS"},"data":[0,0,0,0,0,0,0,0,0,0,0,0,0,0,0,0,0,0,0,0,0,0,0,0,0,0,0,0,0,0,0,0,0,0,0,0,0,0,0,0,0,0,0,0,0,0,0,0,0,0,0,0,0,0,0,0,0,0,-0.0948,-0.0949,0,-0.0993,-0.0993,-0.0993,-0.0996,-0.0996,-0.0996,-0.0996,-0.0926,-0.0924,-0.0922,0,0,0,0,0,0,0,0,0,0,0,0,0,-0.0799,-0.0801,-0.0948,-0.0949,-0.0951,-0.0993,-0.0993,-0.0993,-0.0996,-0.0996,-0.0996,-0.0996,-0.0926,-0.0924,-0.0922,0,0,0,0,0,0,0,0,0,0,0,0,0,-0.0849,-0.0802,-0.0948,-0.0962,-0.0965,-0.0993,-0.0993,-0.0993,-0.0996,-0.0996,-0.0996,-0.0996,-0.0927,-0.0924,-0.0921,-0.0898,0,0,-0.0912,-0.0911,0,0,0,0,0,0,0,0,-0.0846,-0.0853,-0.0959,-0.0961,-0.0964,-0.0995,-0.0915,-0.0958,-0.0996,-0.0976,-0.0996,-0.0997,-0.0943,-0.0938,-0.0938,-0.0895,-0.0892,-0.0912,-0.091,-0.0909,-0.0908,0,0,0,0,0,0,0,-0.0843,-0.0851,-0.0959,-0.096,-0.0964,-0.0944,-0.0951,-0.0922,-0.095,-0.0978,-0.098,-0.0996,-0.0942,-0.0941,-0.0936,-0.0891,-0.0912,-0.0909,-0.0907,-0.0906,-0.0846,-0.0846,0,0,0,0,0,0,-0.0855,-0.0849,-0.0957,-0.0961,-0.0912,-0.0947,-0.0955,-0.0979,-0.0953,-0.0952,-0.0996,-0.0997,-0.0946,-0.094,-0.0934,-0.0918,-0.0909,-0.0906,-0.0904,-0.0845,-0.0846,-0.0846,0,0,0,0,0,0,-0.0852,-0.0865,-0.0956,-0.091,-0.0922,-0.0951,-0.0977,-0.098,-0.0979,-0.0969,-0.0965,-0.0993,-0.0946,-0.0938,-0.0919,-0.0915,-0.0904,-0.0902,-0.0845,-0.0846,-0.0846,-0.0878,0,0,0,0,0,0,-0.0847,-0.0863,-0.0876,-0.0912,-0.0925,-0.097,-0.0978,-0.0981,-0.0992,-0.0993,-0.0965,-0.0959,-0.0945,-0.0924,-0.0916,-0.091,-0.0899,-0.0845,-0.0845,-0.0846,-0.0877,-0.088,-0.0882,0,0,0,0,0,-0.0842,-0.0874,-0.0877,-0.089,-0.0945,-0.097,-0.0974,-0.099,-0.0992,-0.0988,-0.0981,-0.096,-0.0921,-0.0922,-0.0912,-0.0906,-0.0845,-0.0845,-0.0846,-0.0876,-0.0879,-0.0882,0,0,0,0,0,0,-0.0822,-0.0879,-0.0882,-0.0931,-0.0944,-0.0974,-0.0986,-0.0988,-0.098,-0.0979,-0.0961,-0.0954,-0.0936,-0.0917,-0.0919,-0.0891,-0.0879,-0.0878,-0.0905,-0.0908,-0.091,-0.0908,-0.0897,0,0,0,0,0,-0.0822,-0.086,-0.0893,-0.093,-0.0939,-0.0955,-0.0966,-0.0973,-0.0979,-0.0977,-0.096,-0.0943,-0.0931,-0.0917,-0.0899,-0.0879,-0.0844,-0.0869,-0.0872,-0.0874,-0.0867,-0.0813,-0.0809,-0.0847,-0.0847,-0.0847,0,0,-0.0828,-0.0864,-0.0886,-0.0927,-0.0941,-0.0952,-0.096,-0.0981,-0.0986,-0.0967,-0.0961,-0.0947,-0.0928,-0.0915,-0.0905,-0.0898,-0.0848,-0.0875,-0.0877,-0.0868,-0.0813,-0.0809,-0.0805,-0.0848,-0.0848,-0.0848,0,0,-0.0852,-0.0885,-0.0912,-0.092,-0.0946,-0.0956,-0.0959,-0.0976,-0.0978,-0.0973,-0.0966,-0.095,-0.0927,-0.0915,-0.0907,-0.0907,-0.0864,-0.0903,-0.0909,-0.0857,-0.0853,-0.0849,-0.081,-0.0802,-0.0903,-0.0903,-0.0903,0,-0.0847,-0.0892,-0.0919,-0.0934,-0.0946,-0.0956,-0.0965,-0.0971,-0.0976,-0.0975,-0.0974,-0.0944,-0.0927,-0.0911,-0.0921,-0.091,-0.0879,-0.0901,-0.0859,-0.0854,-0.085,-0.081,-0.0801,-0.0904,-0.0904,-0.0904,-0.0904,0,-0.0882,-0.0905,-0.0923,-0.0946,-0.0954,-0.097,-0.0981,-0.098,-0.0984,-0.0986,-0.0971,-0.0951,-0.0931,-0.0927,-0.0927,-0.0892,-0.088,-0.0869,-0.085,-0.0848,-0.0807,-0.0797,-0.0907,-0.0906,-0.0906,-0.0905,0,0,-0.0893,-0.0938,-0.0939,-0.0945,-0.0961,-0.0974,-0.0981,-0.099,-0.0992,-0.0983,-0.0973,-0.0962,-0.0947,-0.0936,-0.0923,-0.0885,-0.0835,-0.0869,-0.0865,-0.0828,-0.0725,-0.0677,-0.0661,-0.0815,-0.0813,-0.0812,-0.0713,0,-0.0901,-0.0938,-0.0954,-0.0968,-0.0983,-0.0985,-0.0992,-0.0996,-0.0996,-0.0985,-0.0966,-0.095,-0.0953,-0.0939,-0.0903,-0.0845,-0.0808,-0.0863,-0.0734,-0.0731,-0.0686,-0.0647,-0.0605,-0.0509,-0.0703,-0.0701,-0.07,0,-0.0916,-0.0941,-0.0966,-0.0984,-0.0989,-0.0993,-0.1,-0.1005,-0.0995,-0.0991,-0.097,-0.0952,-0.0904,-0.0902,-0.0799,-0.0833,-0.0784,-0.0741,-0.0736,-0.0669,-0.0662,-0.0541,-0.0483,-0.0416,-0.0684,-0.0686,-0.0687,0,-0.0915,-0.0943,-0.0967,-0.0972,-0.0994,-0.0998,-0.1005,-0.1005,-0.1012,-0.0986,-0.0973,-0.0923,-0.0882,-0.0813,-0.0739,-0.0761,-0.0614,-0.0628,-0.0542,-0.0539,-0.0464,-0.0457,-0.032,-0.055,-0.055,-0.0551,-0.0551,0,-0.0921,-0.0935,-0.0969,-0.098,-0.1,-0.1003,-0.1015,-0.1016,-0.1005,-0.1007,-0.0972,-0.0944,-0.0855,-0.0773,-0.0716,-0.0585,-0.059,-0.0524,-0.0498,-0.0476,-0.0471,-0.0379,-0.036,-0.0547,-0.0548,-0.0548,-0.0549,0,-0.0917,-0.0941,-0.0967,-0.0994,-0.1004,-0.1015,-0.1034,-0.1046,-0.1023,-0.1014,-0.1002,-0.0934,-0.0819,-0.0727,-0.0595,-0.054,-0.0374,-0.0393,-0.0379,-0.0352,-0.0213,-0.0198,-0.001,0.0003,-0.0272,-0.027,-0.0268,0,-0.0925,-0.0941,-0.0982,-0.1008,-0.1022,-0.1043,-0.1067,-0.1061,-0.1072,-0.1014,-0.101,-0.0891,-0.0821,-0.0598,-0.045,-0.0302,-0.0284,-0.0194,-0.0225,-0.0174,-0.0139,-0.0128,-0.0133,-0.0147,-0.0144,-0.0142,-0.014,0,-0.0936,-0.095,-0.0979,-0.1037,-0.1068,-0.11,-0.1125,-0.1135,-0.1121,-0.109,-0.1028,-0.0955,-0.0718,-0.0512,-0.03,-0.0218,-0.0127,-0.0147,-0.0084,-0.001,0.0005,0.0018,-0.026,-0.0122,-0.0124,-0.0125,-0.0126,-0.0127,-0.0947,-0.0974,-0.1025,-0.1071,-0.1112,-0.1158,-0.1173,-0.1191,-0.1188,-0.1123,-0.1048,-0.0888,-0.0579,-0.0259,-0.0164,0.0082,0.0026,0.0125,0.0143,0.0154,0.0164,-0.0078,0.0081,0.008,0.008,0.0079,0.0079,0,-0.0973,-0.1014,-0.1065,-0.1124,-0.1163,-0.1178,-0.1216,-0.1208,-0.1199,-0.1097,-0.1008,-0.0645,-0.0356,-0.0082,0.0274,0.0371,0.0351,0.0399,0.0419,0.0398,0.0208,0.021,0.0393,0.0393,0.0393,0.0393,0.0392,0.0392,-0.099,-0.1054,-0.1083,-0.1157,-0.1189,-0.1219,-0.123,-0.1205,-0.1131,-0.0936,-0.0717,-0.0566,-0.0182,0.0365,0.0639,0.0638,0.0656,0.0675,0.0655,0.0518,0.0493,0.0469,0.0476,0.0712,0.0712,0.0831,0.0833,0.0834]}],[{"header":{"parameterUnit":"m.s-1","parameterCategory":2,"la1":30.2991,"la2":30.254,"lo1":-89.0895,"lo2":-89.0444,"dy":0.0017,"dx":0.0017,"nx":28,"ny":28,"refTime":"2025-11-30T09:00:00:Z","depth":"2","parameterNumber":2,"parameterNumberName":"U-component_of_CURRENTS"},"data":[0,0,0,0,0,0,0,0,0,0,0,0,0,0,0,0,0,0,0,0,0,0,0,0,0,0,0,0,0,0,0,0,0,0,0,0,0,0,0,0,0,0,0,0,0,0,0,0,0,0,0,0,0,0,0,0,0,0,-0.1467,-0.1468,0,-0.1456,-0.1455,-0.1454,-0.1366,-0.1365,-0.1364,-0.1363,-0.1423,-0.1425,-0.1428,0,0,0,0,0,0,0,0,0,0,0,0,0,-0.1378,-0.1379,-0.1467,-0.1468,-0.1468,-0.1456,-0.1455,-0.1453,-0.1367,-0.1365,-0.1364,-0.1362,-0.1422,-0.1425,-0.1428,0,0,0,0,0,0,0,0,0,0,0,0,0,-0.1386,-0.1379,-0.1467,-0.1431,-0.1429,-0.1456,-0.1455,-0.1453,-0.1367,-0.1365,-0.1363,-0.1362,-0.1421,-0.1425,-0.1429,-0.1489,0,0,-0.1441,-0.1443,0,0,0,0,0,0,0,0,-0.1386,-0.1388,-0.1436,-0.1434,-0.1431,-0.142,-0.1445,-0.1472,-0.1367,-0.1379,-0.1363,-0.1361,-0.1437,-0.1439,-0.1425,-0.1492,-0.1494,-0.1441,-0.1444,-0.1445,-0.1447,0,0,0,0,0,0,0,-0.1385,-0.1388,-0.1451,-0.1437,-0.1434,-0.1405,-0.1403,-0.1449,-0.1411,-0.1378,-0.1374,-0.1391,-0.1434,-0.1421,-0.1426,-0.1495,-0.1441,-0.1445,-0.1447,-0.1449,-0.1553,-0.1554,0,0,0,0,0,0,-0.1413,-0.1388,-0.1452,-0.1452,-0.1416,-0.1409,-0.1406,-0.1417,-0.1409,-0.1408,-0.1392,-0.1387,-0.1415,-0.1421,-0.1428,-0.149,-0.1445,-0.1449,-0.1451,-0.1553,-0.1554,-0.1554,0,0,0,0,0,0,-0.141,-0.1418,-0.1453,-0.1428,-0.1432,-0.1414,-0.1425,-0.1418,-0.1406,-0.1421,-0.1419,-0.1389,-0.1414,-0.1422,-0.1458,-0.1493,-0.1451,-0.1455,-0.1553,-0.1553,-0.1554,-0.1622,0,0,0,0,0,0,-0.1408,-0.1417,-0.1428,-0.143,-0.1435,-0.1471,-0.1428,-0.1419,-0.1424,-0.1416,-0.1419,-0.1422,-0.1413,-0.1452,-0.1462,-0.1497,-0.1458,-0.1552,-0.1553,-0.1554,-0.1619,-0.1625,-0.1629,0,0,0,0,0,-0.1404,-0.1429,-0.1428,-0.1436,-0.1452,-0.1473,-0.1471,-0.1444,-0.1426,-0.1425,-0.142,-0.1421,-0.1463,-0.1457,-0.1468,-0.1505,-0.1552,-0.1553,-0.1554,-0.1617,-0.1624,-0.1629,0,0,0,0,0,0,-0.1399,-0.1424,-0.1422,-0.1453,-0.1466,-0.1462,-0.147,-0.1458,-0.1451,-0.1451,-0.1442,-0.1446,-0.1487,-0.1485,-0.1478,-0.153,-0.1503,-0.1506,-0.1547,-0.1554,-0.1559,-0.1564,-0.1461,0,0,0,0,0,-0.1409,-0.1432,-0.1449,-0.1479,-0.1488,-0.1483,-0.1488,-0.1479,-0.1483,-0.1475,-0.1481,-0.1486,-0.1502,-0.1517,-0.1531,-0.158,-0.1578,-0.1602,-0.1607,-0.1612,-0.162,-0.1632,-0.164,-0.1557,-0.1557,-0.1557,0,0,-0.1416,-0.1439,-0.1449,-0.148,-0.1486,-0.1504,-0.1478,-0.1503,-0.1517,-0.1493,-0.1515,-0.1518,-0.1517,-0.1552,-0.157,-0.1556,-0.1637,-0.1613,-0.1617,-0.1623,-0.1634,-0.1642,-0.1649,-0.1557,-0.1557,-0.1557,0,0,-0.1449,-0.1464,-0.1488,-0.1499,-0.1532,-0.1535,-0.1549,-0.1558,-0.1554,-0.1586,-0.1565,-0.1585,-0.1613,-0.1613,-0.1617,-0.1666,-0.1665,-0.1669,-0.1707,-0.1719,-0.1726,-0.1733,-0.1756,-0.1764,-0.167,-0.167,-0.167,0,-0.1455,-0.1492,-0.15,-0.1524,-0.1545,-0.1553,-0.1581,-0.1585,-0.1605,-0.1617,-0.16,-0.1636,-0.1639,-0.168,-0.1679,-0.1683,-0.1687,-0.1689,-0.1728,-0.1734,-0.1739,-0.1762,-0.177,-0.1673,-0.1673,-0.1672,-0.1672,0,-0.1497,-0.1524,-0.1545,-0.1577,-0.1596,-0.1631,-0.1648,-0.1667,-0.1676,-0.1678,-0.1722,-0.1723,-0.1737,-0.1744,-0.1727,-0.1772,-0.1764,-0.1737,-0.1718,-0.1752,-0.1773,-0.178,-0.1678,-0.1677,-0.1676,-0.1675,0,0,-0.1505,-0.1564,-0.1565,-0.1594,-0.163,-0.1657,-0.1691,-0.1728,-0.1758,-0.177,-0.1809,-0.1825,-0.1824,-0.1827,-0.1823,-0.1832,-0.1876,-0.1802,-0.1801,-0.1836,-0.1915,-0.186,-0.1862,-0.1856,-0.1857,-0.1858,-0.192,0,-0.1534,-0.1603,-0.1616,-0.1673,-0.1711,-0.1724,-0.1758,-0.1789,-0.1812,-0.1849,-0.1858,-0.1892,-0.1857,-0.1877,-0.1881,-0.1876,-0.1895,-0.1863,-0.1866,-0.1867,-0.1823,-0.1869,-0.1688,-0.1723,-0.1927,-0.1928,-0.1929,0,-0.1544,-0.1609,-0.1671,-0.1743,-0.1757,-0.1788,-0.1853,-0.1879,-0.192,-0.1935,-0.1962,-0.1969,-0.1998,-0.1958,-0.1976,-0.1956,-0.1943,-0.1935,-0.1937,-0.1866,-0.1825,-0.1716,-0.1728,-0.194,-0.1939,-0.1938,-0.1938,0,-0.1545,-0.1628,-0.1691,-0.171,-0.1792,-0.1824,-0.1864,-0.1909,-0.194,-0.1993,-0.2024,-0.2052,-0.2074,-0.2062,-0.2029,-0.201,-0.2041,-0.2012,-0.1961,-0.1958,-0.1794,-0.1773,-0.2033,-0.2033,-0.2033,-0.2033,-0.2033,0,-0.1551,-0.1597,-0.1703,-0.1735,-0.182,-0.1855,-0.1922,-0.1957,-0.2011,-0.2051,-0.2069,-0.2103,-0.2098,-0.2105,-0.2068,-0.2034,-0.2071,-0.1984,-0.1972,-0.1813,-0.1794,-0.1964,-0.1956,-0.2035,-0.2035,-0.2034,-0.2034,0,-0.1506,-0.1577,-0.1653,-0.1769,-0.1814,-0.1861,-0.1952,-0.1988,-0.2044,-0.21,-0.212,-0.2155,-0.2155,-0.2145,-0.2134,-0.2085,-0.2059,-0.2037,-0.1859,-0.1823,-0.1965,-0.1959,-0.2006,-0.2005,-0.2004,-0.2003,-0.2002,0,-0.1493,-0.153,-0.1661,-0.1709,-0.176,-0.1848,-0.19,-0.1989,-0.2034,-0.2115,-0.2143,-0.2175,-0.2151,-0.2124,-0.2054,-0.2004,-0.2042,-0.1826,-0.1755,-0.1981,-0.1964,-0.1959,-0.1955,-0.1575,-0.157,-0.1567,-0.1564,0,-0.1462,-0.1493,-0.155,-0.1653,-0.1729,-0.1811,-0.1907,-0.195,-0.2039,-0.2069,-0.2089,-0.2072,-0.2068,-0.1915,-0.1874,-0.1813,-0.1817,-0.1756,-0.2035,-0.1607,-0.1577,-0.156,-0.1569,-0.1533,-0.1536,-0.1538,-0.154,-0.1541,-0.1413,-0.1436,-0.1494,-0.1578,-0.1654,-0.1722,-0.1735,-0.1827,-0.1855,-0.1853,-0.194,-0.1836,-0.1831,-0.1644,-0.1584,-0.154,-0.1657,-0.1561,-0.157,-0.1583,-0.152,-0.1489,-0.1418,-0.142,-0.1422,-0.1424,-0.1426,0,-0.1347,-0.1374,-0.1425,-0.1494,-0.1501,-0.1604,-0.1684,-0.1647,-0.1613,-0.1657,-0.1619,-0.1415,-0.1324,-0.1338,-0.1227,-0.1226,-0.1198,-0.1172,-0.1119,-0.1149,-0.1176,-0.1091,-0.0876,-0.0875,-0.0874,-0.0873,0,0,-0.131,-0.1306,-0.1328,-0.1315,-0.1358,-0.1337,-0.1348,-0.1305,-0.13,-0.1194,-0.1135,-0.12,-0.126,-0.1043,-0.1018,-0.0934,-0.1028,-0.0886,-0.1319,-0.1283,-0.1309,-0.1387,-0.1288,0,0,0,0,0]},{"header":{"parameterUnit":"m.s-1","parameterCategory":2,"la1":30.2991,"la2":30.254,"lo1":-89.0895,"lo2":-89.0444,"dy":0.0017,"dx":0.0017,"nx":28,"ny":28,"refTime":"2025-11-30T09:00:00:Z","depth":"2","parameterNumber":3,"parameterNumberName":"V-component_of_CURRENTS"},"data":[0,0,0,0,0,0,0,0,0,0,0,0,0,0,0,0,0,0,0,0,0,0,0,0,0,0,0,0,0,0,0,0,0,0,0,0,0,0,0,0,0,0,0,0,0,0,0,0,0,0,0,0,0,0,0,0,0,0,-0.0442,-0.0443,0,-0.0365,-0.0362,-0.036,-0.0184,-0.0182,-0.018,-0.0178,-0.0183,-0.0185,-0.0186,0,0,0,0,0,0,0,0,0,0,0,0,0,-0.0372,-0.0373,-0.0442,-0.0443,-0.0444,-0.0365,-0.0362,-0.0359,-0.0184,-0.0182,-0.018,-0.0178,-0.0182,-0.0184,-0.0187,0,0,0,0,0,0,0,0,0,0,0,0,0,-0.0341,-0.0373,-0.0442,-0.0361,-0.0355,-0.0366,-0.0362,-0.0359,-0.0185,-0.0182,-0.0179,-0.0177,-0.0182,-0.0184,-0.0187,-0.0259,0,0,-0.0195,-0.0197,0,0,0,0,0,0,0,0,-0.0343,-0.0341,-0.0372,-0.0367,-0.036,-0.0298,-0.034,-0.0336,-0.0185,-0.0229,-0.0178,-0.0175,-0.0244,-0.0241,-0.0204,-0.026,-0.026,-0.0196,-0.0197,-0.0198,-0.0199,0,0,0,0,0,0,0,-0.0345,-0.0343,-0.0392,-0.0374,-0.0367,-0.0308,-0.0298,-0.0336,-0.0239,-0.0225,-0.0217,-0.024,-0.0238,-0.0201,-0.0204,-0.026,-0.0196,-0.0198,-0.02,-0.0201,-0.0231,-0.0231,0,0,0,0,0,0,-0.0401,-0.0346,-0.0395,-0.0392,-0.0366,-0.0313,-0.0302,-0.0305,-0.0237,-0.0229,-0.0242,-0.0232,-0.0198,-0.02,-0.0203,-0.0224,-0.0198,-0.0201,-0.0203,-0.0232,-0.0231,-0.023,0,0,0,0,0,0,-0.0399,-0.0405,-0.0398,-0.0383,-0.0381,-0.032,-0.0323,-0.0305,-0.0265,-0.0253,-0.0241,-0.0222,-0.0196,-0.02,-0.0193,-0.0226,-0.0202,-0.0205,-0.0233,-0.0232,-0.0231,-0.0307,0,0,0,0,0,0,-0.0397,-0.0404,-0.0411,-0.0387,-0.0384,-0.0386,-0.0327,-0.0307,-0.0294,-0.0278,-0.0234,-0.023,-0.0194,-0.0188,-0.0195,-0.0229,-0.0207,-0.0234,-0.0233,-0.0231,-0.0305,-0.0308,-0.0311,0,0,0,0,0,-0.0394,-0.0407,-0.0411,-0.0418,-0.04,-0.0389,-0.0378,-0.0313,-0.0296,-0.0266,-0.0225,-0.0231,-0.0182,-0.019,-0.0199,-0.0234,-0.0235,-0.0233,-0.0231,-0.0304,-0.0308,-0.0311,0,0,0,0,0,0,-0.0373,-0.0393,-0.0395,-0.0412,-0.0405,-0.0366,-0.0355,-0.0333,-0.0276,-0.0275,-0.0236,-0.0229,-0.0231,-0.0218,-0.0228,-0.0228,-0.0207,-0.0207,-0.0259,-0.0263,-0.0265,-0.0266,-0.0209,0,0,0,0,0,-0.0389,-0.0406,-0.041,-0.0431,-0.0433,-0.0405,-0.0396,-0.0368,-0.0336,-0.0305,-0.0283,-0.0256,-0.0233,-0.0234,-0.0214,-0.0244,-0.0218,-0.0261,-0.0264,-0.0267,-0.0267,-0.0239,-0.024,-0.0224,-0.0224,-0.0224,0,0,-0.0389,-0.0414,-0.0418,-0.0431,-0.0421,-0.0413,-0.0384,-0.0389,-0.0375,-0.033,-0.03,-0.028,-0.0239,-0.0232,-0.0235,-0.0229,-0.0257,-0.0265,-0.0268,-0.0266,-0.0237,-0.0239,-0.0241,-0.0223,-0.0223,-0.0223,0,0,-0.0405,-0.0424,-0.0432,-0.0427,-0.0451,-0.0439,-0.0452,-0.0432,-0.0401,-0.0398,-0.0345,-0.0332,-0.032,-0.0276,-0.0258,-0.0275,-0.027,-0.0281,-0.0312,-0.0286,-0.0288,-0.029,-0.0266,-0.0264,-0.0287,-0.0287,-0.0287,0,-0.0402,-0.0427,-0.0432,-0.0435,-0.045,-0.0456,-0.0462,-0.0436,-0.0413,-0.0401,-0.0394,-0.0345,-0.0331,-0.0302,-0.0292,-0.0288,-0.0269,-0.0313,-0.0294,-0.0294,-0.0295,-0.027,-0.0267,-0.0291,-0.029,-0.029,-0.029,0,-0.0413,-0.0429,-0.0441,-0.0452,-0.0454,-0.0475,-0.0468,-0.0461,-0.0466,-0.044,-0.0427,-0.0396,-0.0358,-0.0363,-0.0339,-0.0335,-0.032,-0.0303,-0.0297,-0.0302,-0.0274,-0.027,-0.0296,-0.0294,-0.0293,-0.0292,0,0,-0.0418,-0.0443,-0.0445,-0.0454,-0.0477,-0.0478,-0.0479,-0.0471,-0.0464,-0.0452,-0.0437,-0.0411,-0.0407,-0.0384,-0.0369,-0.0359,-0.0358,-0.0345,-0.0342,-0.0341,-0.0306,-0.0238,-0.0227,-0.0347,-0.0346,-0.0346,-0.0289,0,-0.043,-0.0459,-0.0463,-0.0477,-0.0494,-0.0494,-0.0491,-0.0482,-0.0476,-0.0456,-0.0437,-0.0421,-0.041,-0.042,-0.0403,-0.0362,-0.035,-0.0375,-0.0282,-0.0279,-0.0236,-0.0221,-0.0224,-0.0169,-0.0285,-0.0285,-0.0284,0,-0.043,-0.0466,-0.0492,-0.0514,-0.0517,-0.0522,-0.0536,-0.0525,-0.0493,-0.0486,-0.0467,-0.0448,-0.0427,-0.0431,-0.0366,-0.0386,-0.0355,-0.0328,-0.0324,-0.0231,-0.0204,-0.0178,-0.0157,-0.0277,-0.0278,-0.0279,-0.0279,0,-0.0449,-0.0474,-0.0511,-0.0514,-0.0534,-0.0546,-0.056,-0.0544,-0.0537,-0.0512,-0.051,-0.0468,-0.046,-0.0414,-0.0352,-0.0369,-0.0276,-0.0283,-0.019,-0.0185,-0.015,-0.0142,-0.0242,-0.0242,-0.0242,-0.0242,-0.0243,0,-0.0462,-0.0486,-0.0525,-0.0538,-0.0581,-0.0579,-0.0596,-0.0593,-0.0583,-0.0574,-0.0537,-0.0516,-0.046,-0.0397,-0.0349,-0.024,-0.0264,-0.0187,-0.0161,-0.0174,-0.0169,-0.0231,-0.0231,-0.024,-0.0241,-0.0241,-0.0242,0,-0.0467,-0.0491,-0.0524,-0.0567,-0.0588,-0.0613,-0.064,-0.0639,-0.0631,-0.0625,-0.0627,-0.0549,-0.0458,-0.038,-0.0288,-0.0225,-0.0139,-0.0098,-0.0114,-0.009,-0.0074,-0.0078,0.0001,0.0004,0.0006,0.0008,0.001,0,-0.0481,-0.05,-0.0548,-0.0576,-0.0603,-0.0641,-0.0669,-0.0674,-0.0688,-0.0633,-0.0643,-0.0543,-0.0459,-0.0267,-0.0147,-0.0026,-0.0058,0.004,0.0015,-0.0064,-0.0047,-0.0055,-0.0062,0.0022,0.0024,0.0025,0.0026,0,-0.0508,-0.0513,-0.0539,-0.0605,-0.0646,-0.0676,-0.0734,-0.0749,-0.0742,-0.0716,-0.0647,-0.0561,-0.0367,-0.0196,-0.0025,0.0042,0.0022,0.0075,0.0004,-0.0029,-0.0036,-0.0022,-0.0032,0.0039,0.0037,0.0036,0.0036,0.0035,-0.0525,-0.0547,-0.0576,-0.0633,-0.0669,-0.0717,-0.0732,-0.0771,-0.0765,-0.0723,-0.0642,-0.0487,-0.0332,-0.0055,0.0065,0.0168,0.0145,0.0156,0.0148,0.0139,0.0142,0.0141,0.0249,0.0249,0.0249,0.0248,0.0248,0,-0.0551,-0.0576,-0.0613,-0.0659,-0.0677,-0.072,-0.0767,-0.0749,-0.0731,-0.0689,-0.0594,-0.0365,-0.0181,-0.0029,0.0152,0.0256,0.0218,0.0269,0.0188,0.0176,0.0165,0.0166,0.028,0.0281,0.0281,0.0281,0,0,-0.0566,-0.0594,-0.0608,-0.0652,-0.0689,-0.0718,-0.0736,-0.0698,-0.0662,-0.056,-0.0464,-0.0345,-0.0163,-0.0027,0.0103,0.0194,0.0152,0.0203,0.0169,0.0046,0.0034,0.0097,0.0086,0,0,0,0,0]}],[{"header":{"parameterUnit":"m.s-1","parameterCategory":2,"la1":30.2991,"la2":30.254,"lo1":-89.0895,"lo2":-89.0444,"dy":0.0017,"dx":0.0017,"nx":28,"ny":28,"refTime":"2025-11-30T09:00:00:Z","depth":"4","parameterNumber":2,"parameterNumberName":"U-component_of_CURRENTS"},"data":[0,0,0,0,0,0,0,0,0,0,0,0,0,0,0,0,0,0,0,0,0,0,0,0,0,0,0,0,0,0,0,0,0,0,0,0,0,0,0,0,0,0,0,0,0,0,0,0,0,0,0,0,0,0,0,0,0,0,-0.0264,-0.0264,0,-0.0232,-0.0231,-0.0231,-0.0219,-0.022,-0.022,-0.022,-0.0152,-0.015,-0.0148,0,0,0,0,0,0,0,0,0,0,0,0,0,-0.0421,-0.0417,-0.0264,-0.0264,-0.0264,-0.0232,-0.0231,-0.0231,-0.0219,-0.022,-0.022,-0.022,-0.0152,-0.015,-0.0147,0,0,0,0,0,0,0,0,0,0,0,0,0,-0.0365,-0.0416,-0.0264,-0.0255,-0.0254,-0.0232,-0.0231,-0.0231,-0.0219,-0.022,-0.022,-0.022,-0.0153,-0.015,-0.0147,-0.012,0,0,-0.0138,-0.0136,0,0,0,0,0,0,0,0,-0.0368,-0.0359,-0.0257,-0.0256,-0.0255,-0.0232,-0.0262,-0.0192,-0.0219,-0.0231,-0.022,-0.0221,-0.0176,-0.0171,-0.0162,-0.0117,-0.0114,-0.0137,-0.0135,-0.0134,-0.0133,0,0,0,0,0,0,0,-0.0372,-0.0361,-0.025,-0.0257,-0.0255,-0.0289,-0.028,-0.0249,-0.02,-0.023,-0.0229,-0.0228,-0.0175,-0.0165,-0.016,-0.0113,-0.0137,-0.0135,-0.0133,-0.0132,-0.0052,-0.0052,0,0,0,0,0,0,-0.0372,-0.0364,-0.0251,-0.0249,-0.0316,-0.0286,-0.0276,-0.0237,-0.0201,-0.0196,-0.0228,-0.0228,-0.017,-0.0164,-0.0158,-0.0165,-0.0134,-0.0131,-0.0129,-0.0053,-0.0052,-0.0052,0,0,0,0,0,0,-0.0375,-0.0361,-0.0252,-0.031,-0.0299,-0.0282,-0.0239,-0.0236,-0.0235,-0.02,-0.0195,-0.0231,-0.017,-0.0162,-0.0137,-0.0161,-0.013,-0.0127,-0.0053,-0.0052,-0.0052,-0.0152,0,0,0,0,0,0,-0.0379,-0.0361,-0.0354,-0.0308,-0.0295,-0.0243,-0.0239,-0.0236,-0.0234,-0.0234,-0.02,-0.0194,-0.017,-0.0142,-0.0134,-0.0156,-0.0125,-0.0053,-0.0053,-0.0052,-0.0149,-0.0155,-0.0161,0,0,0,0,0,-0.0384,-0.0364,-0.0352,-0.034,-0.0276,-0.0244,-0.024,-0.0231,-0.0234,-0.0232,-0.0212,-0.0195,-0.0134,-0.014,-0.013,-0.0152,-0.0053,-0.0053,-0.0052,-0.0147,-0.0154,-0.0161,0,0,0,0,0,0,-0.0435,-0.0359,-0.0346,-0.0305,-0.0281,-0.0242,-0.0244,-0.0236,-0.0219,-0.0224,-0.0191,-0.0183,-0.0167,-0.0137,-0.0144,-0.0123,-0.0091,-0.0088,-0.0166,-0.0172,-0.0178,-0.0219,-0.0122,0,0,0,0,0,-0.044,-0.0398,-0.0346,-0.032,-0.0303,-0.0277,-0.027,-0.0261,-0.0235,-0.0229,-0.0207,-0.018,-0.0154,-0.0147,-0.0113,-0.0104,-0.0125,-0.0109,-0.0115,-0.012,-0.0144,-0.0216,-0.0233,-0.005,-0.005,-0.005,0,0,-0.0462,-0.041,-0.0395,-0.0329,-0.0307,-0.0283,-0.0273,-0.026,-0.0254,-0.0222,-0.0213,-0.0194,-0.0152,-0.0143,-0.0134,-0.0127,-0.0176,-0.0119,-0.0125,-0.0146,-0.0218,-0.0237,-0.0253,-0.005,-0.005,-0.005,0,0,-0.0468,-0.0427,-0.0393,-0.037,-0.0334,-0.0308,-0.0305,-0.0271,-0.0271,-0.026,-0.0236,-0.0236,-0.0192,-0.0181,-0.0166,-0.0178,-0.0196,-0.0163,-0.024,-0.031,-0.0328,-0.0344,-0.038,-0.0398,-0.0177,-0.0177,-0.0177,0,-0.0506,-0.0433,-0.0389,-0.0356,-0.0346,-0.0316,-0.03,-0.0288,-0.026,-0.027,-0.0267,-0.0249,-0.0213,-0.0221,-0.0234,-0.0196,-0.0239,-0.0225,-0.0325,-0.0341,-0.0356,-0.0389,-0.0408,-0.0182,-0.0181,-0.0181,-0.0181,0,-0.0478,-0.0438,-0.042,-0.0354,-0.0346,-0.0325,-0.0301,-0.0301,-0.0303,-0.0304,-0.0325,-0.0305,-0.0312,-0.0293,-0.0274,-0.0347,-0.0344,-0.0323,-0.0325,-0.0381,-0.0411,-0.0429,-0.0189,-0.0187,-0.0186,-0.0185,0,0,-0.0513,-0.0415,-0.0414,-0.0386,-0.0344,-0.0327,-0.0327,-0.0315,-0.0335,-0.0347,-0.0388,-0.0377,-0.0413,-0.0399,-0.0387,-0.045,-0.0575,-0.0453,-0.0455,-0.0519,-0.0739,-0.0623,-0.063,-0.0603,-0.0607,-0.061,-0.0716,0,-0.0505,-0.0425,-0.0398,-0.0367,-0.0324,-0.0324,-0.0334,-0.0341,-0.0351,-0.0385,-0.0413,-0.0447,-0.0438,-0.0477,-0.0541,-0.0557,-0.0631,-0.0548,-0.0649,-0.0651,-0.0566,-0.065,-0.0622,-0.0729,-0.0733,-0.0736,-0.0738,0,-0.0491,-0.0425,-0.0376,-0.0348,-0.0341,-0.0347,-0.0365,-0.0379,-0.0423,-0.0455,-0.0522,-0.0543,-0.0629,-0.062,-0.0744,-0.0708,-0.0751,-0.0767,-0.0771,-0.0647,-0.0569,-0.0658,-0.0771,-0.0768,-0.0766,-0.0763,-0.0761,0,-0.05,-0.043,-0.0383,-0.037,-0.0332,-0.0355,-0.0371,-0.0409,-0.0435,-0.0529,-0.0573,-0.0667,-0.0727,-0.082,-0.0843,-0.0839,-0.0961,-0.0945,-0.0877,-0.0868,-0.0899,-0.0881,-0.1065,-0.1065,-0.1064,-0.1064,-0.1064,0,-0.0489,-0.0464,-0.0386,-0.0363,-0.0357,-0.037,-0.0415,-0.0448,-0.0516,-0.0552,-0.0639,-0.0662,-0.0796,-0.0849,-0.0892,-0.0926,-0.101,-0.0919,-0.0905,-0.0929,-0.0914,-0.0911,-0.0891,-0.1068,-0.1067,-0.1066,-0.1066,0,-0.0521,-0.0455,-0.0407,-0.0362,-0.0354,-0.0376,-0.0426,-0.0441,-0.0544,-0.0597,-0.0645,-0.0707,-0.0802,-0.0879,-0.0992,-0.0966,-0.1012,-0.0998,-0.1004,-0.0982,-0.087,-0.0854,-0.0986,-0.0983,-0.0981,-0.0979,-0.0977,0,-0.0521,-0.0484,-0.0413,-0.0372,-0.0356,-0.0378,-0.0371,-0.045,-0.0473,-0.0578,-0.0582,-0.0697,-0.0741,-0.0821,-0.0886,-0.0993,-0.0973,-0.0986,-0.0964,-0.0898,-0.0871,-0.0859,-0.0847,-0.0973,-0.0972,-0.0972,-0.0971,0,-0.0528,-0.0512,-0.0473,-0.0385,-0.0349,-0.0328,-0.0346,-0.035,-0.0441,-0.0518,-0.0562,-0.0618,-0.0693,-0.077,-0.0857,-0.0903,-0.0978,-0.0962,-0.0968,-0.0948,-0.0883,-0.0857,-0.0848,-0.0963,-0.0964,-0.0965,-0.0965,0,-0.0557,-0.0534,-0.047,-0.0401,-0.0366,-0.0308,-0.0298,-0.0314,-0.0363,-0.0483,-0.0457,-0.0576,-0.0658,-0.0715,-0.0758,-0.0838,-0.0854,-0.0833,-0.0846,-0.0856,-0.0761,-0.0656,-0.0686,0,0,0,0,0,-0.0562,-0.0517,-0.0463,-0.0392,-0.0372,-0.0333,-0.0292,-0.028,-0.0329,-0.036,-0.0443,-0.0516,-0.061,-0.0618,-0.0693,-0.0693,-0.0844,-0.0766,-0.0822,-0.0917,-0.0926,-0.0823,0,0,0,0,0,0,-0.0553,-0.0516,-0.0471,-0.0431,-0.0375,-0.0339,-0.029,-0.0277,-0.0312,-0.037,-0.0431,-0.05,-0.0605,-0.0632,-0.0705,-0.072,-0.074,-0.084,-0.0838,-0.0911,-0.092,-0.0928,-0.0825,0,0,0,0,0]},{"header":{"parameterUnit":"m.s-1","parameterCategory":2,"la1":30.2991,"la2":30.254,"lo1":-89.0895,"lo2":-89.0444,"dy":0.0017,"dx":0.0017,"nx":28,"ny":28,"refTime":"2025-11-30T09:00:00:Z","depth":"4","parameterNumber":3,"parameterNumberName":"V-component_of_CURRENTS"},"data":[0,0,0,0,0,0,0,0,0,0,0,0,0,0,0,0,0,0,0,0,0,0,0,0,0,0,0,0,0,0,0,0,0,0,0,0,0,0,0,0,0,0,0,0,0,0,0,0,0,0,0,0,0,0,0,0,0,0,0.0369,0.0369,0,0.038,0.0379,0.0379,0.0385,0.0385,0.0386,0.0386,0.0443,0.0444,0.0445,0,0,0,0,0,0,0,0,0,0,0,0,0,0.0275,0.0277,0.0369,0.0369,0.037,0.038,0.0379,0.0379,0.0385,0.0385,0.0386,0.0386,0.0443,0.0444,0.0445,0,0,0,0,0,0,0,0,0,0,0,0,0,0.03,0.0278,0.0369,0.0377,0.0379,0.038,0.0379,0.0379,0.0384,0.0385,0.0386,0.0386,0.0442,0.0444,0.0445,0.0442,0,0,0.045,0.0451,0,0,0,0,0,0,0,0,0.0298,0.0303,0.0375,0.0377,0.0378,0.0386,0.0368,0.0404,0.0384,0.0377,0.0386,0.0387,0.0431,0.0433,0.0426,0.0445,0.0447,0.0451,0.0452,0.0452,0.0453,0,0,0,0,0,0,0,0.0297,0.0302,0.0368,0.0376,0.0378,0.0355,0.0359,0.0374,0.0397,0.0378,0.0379,0.0388,0.0431,0.0425,0.0428,0.0448,0.0451,0.0452,0.0453,0.0454,0.0523,0.0524,0,0,0,0,0,0,0.0309,0.0301,0.0368,0.0369,0.0344,0.0356,0.0361,0.0379,0.0396,0.04,0.0387,0.0388,0.0422,0.0426,0.043,0.0494,0.0452,0.0454,0.0455,0.0523,0.0524,0.0525,0,0,0,0,0,0,0.0307,0.0315,0.0368,0.0338,0.0344,0.0358,0.0377,0.0379,0.0393,0.0404,0.0408,0.0403,0.0422,0.0428,0.0452,0.0494,0.0455,0.0456,0.0522,0.0523,0.0524,0.0579,0,0,0,0,0,0,0.0304,0.0314,0.033,0.0339,0.0346,0.0376,0.0377,0.0379,0.0398,0.04,0.0419,0.0423,0.0423,0.0449,0.0453,0.0495,0.0457,0.052,0.0522,0.0524,0.0576,0.0582,0.0587,0,0,0,0,0,0.0301,0.0323,0.0331,0.0339,0.0369,0.0377,0.0377,0.0386,0.0399,0.0401,0.0415,0.0424,0.0463,0.0451,0.0456,0.0499,0.052,0.0522,0.0524,0.0574,0.0581,0.0587,0,0,0,0,0,0,0.0281,0.0326,0.0335,0.0368,0.0376,0.038,0.0383,0.0398,0.0409,0.0414,0.0428,0.0432,0.0465,0.0471,0.0457,0.0522,0.0496,0.0499,0.0533,0.0539,0.0545,0.0521,0.0459,0,0,0,0,0,0.0288,0.0322,0.0344,0.0367,0.0371,0.0381,0.0388,0.0397,0.0409,0.0415,0.0441,0.046,0.0472,0.0497,0.05,0.0542,0.0523,0.0574,0.0579,0.0584,0.0566,0.0575,0.058,0.0531,0.0531,0.0531,0,0,0.028,0.0315,0.0329,0.0366,0.0368,0.0375,0.0385,0.0398,0.0417,0.042,0.0461,0.0473,0.0481,0.0516,0.0535,0.0534,0.0589,0.0586,0.0591,0.057,0.0578,0.0582,0.0586,0.0532,0.0532,0.0532,0,0,0.0285,0.0315,0.0341,0.035,0.0374,0.0379,0.0391,0.0414,0.0435,0.0474,0.0475,0.0509,0.0551,0.056,0.057,0.0609,0.0603,0.0629,0.0659,0.0669,0.0673,0.0676,0.0661,0.0662,0.065,0.0651,0.0651,0,0.0271,0.0314,0.0343,0.0362,0.0368,0.0386,0.0392,0.0414,0.0451,0.0466,0.0496,0.0543,0.0568,0.0589,0.0614,0.0623,0.0616,0.0637,0.0676,0.0678,0.0681,0.0665,0.0666,0.0653,0.0653,0.0653,0.0653,0,0.0295,0.0318,0.0326,0.0363,0.0371,0.0377,0.0406,0.0431,0.0473,0.0499,0.0544,0.0579,0.0603,0.0638,0.0647,0.0681,0.0665,0.0668,0.0659,0.0689,0.067,0.067,0.0658,0.0657,0.0656,0.0655,0,0,0.0271,0.0333,0.0332,0.0338,0.0371,0.0373,0.0405,0.0428,0.0436,0.0514,0.0532,0.0603,0.0626,0.0636,0.0662,0.0698,0.073,0.0705,0.0704,0.0688,0.0736,0.0656,0.0647,0.0749,0.0749,0.0749,0.0718,0,0.0268,0.0309,0.0343,0.0346,0.0351,0.0371,0.0392,0.0419,0.0454,0.0478,0.0539,0.0566,0.0625,0.0645,0.0691,0.0707,0.0731,0.0737,0.0709,0.0707,0.0631,0.0645,0.075,0.0718,0.0718,0.0718,0.0717,0,0.0267,0.0297,0.0322,0.0332,0.0333,0.0345,0.0352,0.0371,0.0403,0.0435,0.0481,0.0515,0.0578,0.062,0.0683,0.0686,0.0711,0.0734,0.0733,0.0631,0.0626,0.068,0.0717,0.0717,0.0717,0.0717,0.0717,0,0.0231,0.0263,0.0287,0.0293,0.0324,0.0333,0.0338,0.0361,0.0364,0.0399,0.0404,0.0476,0.0505,0.0568,0.0634,0.0665,0.0672,0.0716,0.0656,0.065,0.0709,0.0706,0.0736,0.0736,0.0736,0.0736,0.0736,0,0.0212,0.021,0.0274,0.0282,0.0281,0.0306,0.0295,0.031,0.0318,0.0306,0.0377,0.0368,0.0498,0.0523,0.0594,0.0608,0.0641,0.0642,0.0635,0.0733,0.0733,0.0708,0.0706,0.0735,0.0735,0.0735,0.0736,0,0.0154,0.0207,0.0216,0.0259,0.027,0.0262,0.0262,0.0252,0.0263,0.0243,0.0256,0.0294,0.0328,0.0415,0.0488,0.0532,0.0566,0.0553,0.0615,0.0615,0.0552,0.0553,0.0505,0.0502,0.0499,0.0497,0.0495,0,0.0132,0.0145,0.019,0.0207,0.0229,0.0226,0.0227,0.0231,0.0218,0.0184,0.0172,0.0183,0.0218,0.0242,0.0342,0.0432,0.045,0.0465,0.0554,0.0529,0.0528,0.0533,0.0537,0.0491,0.049,0.0489,0.0489,0,0.0075,0.0101,0.0117,0.0158,0.0175,0.0175,0.0174,0.0155,0.0149,0.0144,0.009,0.0107,0.0109,0.0188,0.0233,0.0309,0.0468,0.0439,0.0447,0.0531,0.0511,0.0514,0.0521,0.0479,0.0481,0.0482,0.0482,0,0.0023,0.0024,0.0072,0.0101,0.0115,0.0135,0.0137,0.0121,0.01,0.0074,0.0035,0.0047,0.0062,0.0115,0.0158,0.0219,0.0269,0.0324,0.0339,0.035,0.0324,0.0278,0.0153,0,0,0,0,0,-0.0023,-0.0002,0.002,0.0065,0.0075,0.0099,0.0108,0.0115,0.0093,0.0049,0.0046,0.0042,0.0073,0.0075,0.0125,0.0146,0.0301,0.0206,0.0378,0.0428,0.0439,0.0429,0,0,0,0,0,0,-0.0046,-0.0028,0.0005,0.0025,0.005,0.007,0.008,0.0085,0.0063,0.0037,0.0052,0.004,0.008,0.0039,0.0115,0.0129,0.0243,0.0219,0.022,0.0422,0.0432,0.044,0.0434,0,0,0,0,0]}]]